Le nostre stazioni meteo in Italia

Pubblicità
Il mio iltempo24.it
Edinburgh/Gogarbank, Gran Bretagna (3166): Temperatura & dewpoint: 01.04.2020 23:00:00 - 07.04.2020 23:00:00 (BST)Edinburgh/Gogarbank, Gran Bretagna (3166): Temperatura -20cm & Temperatura -100cm: 01.04.2020 23:00:00 - 07.04.2020 23:00:00 (BST)Edinburgh/Gogarbank, Gran Bretagna (3166): velocità del vento & gusts: 01.04.2020 23:00:00 - 07.04.2020 23:00:00 (BST)Edinburgh/Gogarbank, Gran Bretagna (3166): direzione del vento: 01.04.2020 23:00:00 - 07.04.2020 23:00:00 (BST)Edinburgh/Gogarbank, Gran Bretagna (3166): reduced air pressure: 01.04.2020 23:00:00 - 07.04.2020 23:00:00 (BST)Edinburgh/Gogarbank, Gran Bretagna (3166): visibility: 01.04.2020 23:00:00 - 07.04.2020 23:00:00 (BST)Edinburgh/Gogarbank, Gran Bretagna (3166): ore di luce: 01.04.2020 23:00:00 - 07.04.2020 23:00:00 (BST)Edinburgh/Gogarbank, Gran Bretagna (3166): precipitazioni: 01.04.2020 23:00:00 - 07.04.2020 23:00:00 (BST)
Data & Tempo tt [°C] td [°C] tt -20cm [°C] tt -100cm [°C] ff [km/h] ff [kn] fx [km/h] fx [kn] dd ppp [hPa] vv [km] sd [min] rr [mm]
07.04.2020 23:00:00 7,6 1,8 - - 13 7 - - OSO 1024,4 30 0 0,0
07.04.2020 22:00:00 8,3 1,9 - - 16 9 - - SO 1024,8 40 0 0,0
07.04.2020 21:00:00 8,7 1,5 - - 8 4 - - SSO 1025,0 40 0 0,0
07.04.2020 20:00:00 10,3 1,5 - - 11 6 - - SSO 1024,6 30 18 0,0
07.04.2020 19:00:00 12,1 1,9 - - 21 11 - - SSO 1024,5 30 60 0,0
07.04.2020 18:00:00 13,4 2,1 - - 22 12 - - SO 1024,5 19 60 0,0
07.04.2020 17:00:00 14,0 0,9 - - 28 15 - - SO 1024,9 24 60 0,0
07.04.2020 16:00:00 14,4 3,0 - - 26 14 - - SO 1025,4 35 48 0,0
07.04.2020 15:00:00 12,9 3,8 - - 22 12 - - SO 1026,2 30 24 0,0
07.04.2020 14:00:00 12,9 3,9 - - 26 14 - - SO 1026,6 22 54 0,0
07.04.2020 13:00:00 12,9 3,2 - - 21 11 - - SSO 1026,8 30 60 0,0
07.04.2020 12:00:00 12,0 3,1 - - 28 15 - - SO 1027,2 24 60 0,0
07.04.2020 11:00:00 11,1 3,3 - - 21 11 - - SSO 1027,5 17 54 0,0
07.04.2020 10:00:00 9,9 3,7 7,7 7,2 13 7 - - SO 1027,4 20 54 0,0
07.04.2020 09:00:00 8,9 3,8 - - 11 6 - - SO 1027,2 35 60 0,0
07.04.2020 08:00:00 6,9 3,3 - - 11 6 - - SSO 1026,9 30 42 0,0
07.04.2020 07:00:00 4,6 1,9 - - 8 4 - - SO 1026,9 28 0 0,0
07.04.2020 06:00:00 5,1 2,4 - - 11 6 - - SSO 1026,4 30 0 0,0
07.04.2020 05:00:00 5,3 2,0 - - 8 4 - - SSO 1026,1 40 0 0,0
07.04.2020 04:00:00 5,6 2,0 - - 8 4 - - SO 1025,7 40 0 0,0
07.04.2020 03:00:00 6,2 2,2 - - 9 5 - - SSO 1025,0 40 0 0,0
07.04.2020 02:00:00 6,6 2,6 - - 13 7 - - SO 1024,6 45 0 0,0
07.04.2020 01:00:00 6,0 2,7 - - 13 7 - - OSO 1023,9 30 - 0,0
07.04.2020 00:00:00 5,8 2,3 - - 9 5 - - S 1023,0 30 0 0,0
06.04.2020 23:00:00 6,9 2,3 - - 11 6 - - SO 1022,1 30 0 0,0
06.04.2020 22:00:00 7,5 2,2 - - 9 5 - - SO 1021,3 30 0 0,0
06.04.2020 21:00:00 7,9 1,7 - - 11 6 - - SO 1020,3 22 0 0,0
06.04.2020 20:00:00 9,8 1,6 - - 13 7 - - OSO 1018,9 27 30 0,0
06.04.2020 19:00:00 11,4 1,4 - - 22 12 - - OSO 1017,5 28 48 0,0
06.04.2020 18:00:00 12,1 1,4 - - 24 13 - - O 1016,1 30 24 0,0
06.04.2020 17:00:00 12,5 1,3 - - 26 14 46 25 O 1015,0 23 30 0,0
06.04.2020 16:00:00 12,7 1,9 - - 29 16 52 28 O 1013,9 30 48 0,0
06.04.2020 15:00:00 12,9 3,3 - - 34 18 54 29 OSO 1012,8 30 54 0,0
06.04.2020 14:00:00 13,0 2,6 - - 31 17 54 29 OSO 1011,5 23 48 0,0
06.04.2020 13:00:00 12,6 4,2 - - 29 16 50 27 OSO 1010,3 28 18 0,0
06.04.2020 12:00:00 11,3 2,5 - - 31 17 55 30 OSO 1009,0 18 6 0,0
06.04.2020 11:00:00 11,5 2,5 - - 35 19 55 30 OSO 1007,5 35 54 0,0
06.04.2020 10:00:00 10,9 3,2 7,7 7,0 34 18 59 32 OSO 1005,9 18 42 0,0
06.04.2020 09:00:00 10,4 5,1 - - 26 14 46 25 SO 1004,4 30 30 0,0
06.04.2020 08:00:00 9,8 5,9 - - 21 11 - - SO 1003,2 30 0 0,0
06.04.2020 07:00:00 10,1 6,2 - - 22 12 - - SO 1001,9 22 0 0,0
06.04.2020 06:00:00 9,9 6,5 - - 18 10 52 28 SO 1000,8 30 0 0,0
06.04.2020 05:00:00 11,1 7,3 - - 37 20 63 34 SO 999,5 45 0 0,0
06.04.2020 04:00:00 12,7 8,9 - - 37 20 63 34 SSO 998,2 50 0 0,0
06.04.2020 03:00:00 13,2 9,3 - - 34 18 57 31 SSO 997,7 45 0 0,0
06.04.2020 02:00:00 14,3 8,8 - - 29 16 59 32 SSO 997,7 45 0 0,0
06.04.2020 01:00:00 14,2 8,1 - - 16 9 - - S 998,8 40 - 0,0
06.04.2020 00:00:00 14,9 7,1 - - 16 9 - - S 999,2 50 0 0,0
05.04.2020 23:00:00 16,1 5,1 - - 15 8 - - SSE 1000,1 50 0 0,0
05.04.2020 22:00:00 16,4 4,9 - - 13 7 - - SE 1000,3 50 0 0,0
05.04.2020 21:00:00 16,6 4,2 - - 11 6 - - SSE 1000,8 50 0 0,0
05.04.2020 20:00:00 17,1 3,9 - - 11 6 - - SE 1001,1 50 0 0,0
05.04.2020 19:00:00 18,0 3,6 - - 11 6 - - SSE 1001,5 50 0 0,0
05.04.2020 18:00:00 19,2 3,6 - - 16 9 - - SSE 1002,0 45 54 0,0
05.04.2020 17:00:00 19,2 3,0 - - 22 12 - - S 1002,9 45 18 0,0
05.04.2020 16:00:00 18,7 2,8 - - 21 11 - - SSE 1003,8 28 36 0,0
05.04.2020 15:00:00 16,9 3,0 - - 18 10 - - SSE 1005,1 45 0 0,0
05.04.2020 14:00:00 16,5 2,7 - - 16 9 - - SSE 1005,9 45 6 0,0
05.04.2020 13:00:00 15,1 3,3 - - 15 8 - - SSE 1007,2 40 0 0,0
05.04.2020 12:00:00 13,8 3,9 - - 8 4 - - S 1008,3 45 6 0,0
05.04.2020 11:00:00 12,1 4,4 - - 9 5 - - E 1009,1 25 0 0,0
05.04.2020 10:00:00 9,9 3,4 7,0 7,0 15 8 - - ESE 1009,9 28 0 0,0
05.04.2020 09:00:00 8,6 3,0 - - 16 9 - - ESE 1010,8 30 12 0,0
05.04.2020 08:00:00 8,9 3,0 - - 9 5 - - E 1011,3 40 36 0,0
05.04.2020 07:00:00 7,6 2,6 - - 13 7 - - SE 1011,5 40 0 0,0
05.04.2020 06:00:00 8,7 2,2 - - 9 5 - - NNE 1011,7 45 0 0,0
05.04.2020 05:00:00 9,7 2,6 - - 15 8 50 27 S 1011,1 45 0 0,0
05.04.2020 04:00:00 10,1 2,8 - - 21 11 - - SSO 1011,5 40 0 0,0
05.04.2020 03:00:00 9,9 3,9 - - 11 6 - - S 1012,0 40 0 0,0
05.04.2020 02:00:00 9,7 3,4 - - 21 11 - - SSO 1012,1 45 0 0,0
05.04.2020 01:00:00 9,4 2,0 - - 9 5 - - SSO 1013,0 50 - 0,0
05.04.2020 00:00:00 9,6 3,2 - - 15 8 - - SO 1013,2 45 0 0,0
04.04.2020 23:00:00 9,6 4,3 - - 11 6 - - S 1013,2 30 0 0,0
04.04.2020 22:00:00 8,6 4,0 - - 2 1 - - S 1013,4 27 0 0,0
04.04.2020 21:00:00 9,4 3,8 - - 8 4 - - SSE 1013,7 40 0 0,0
04.04.2020 20:00:00 9,4 3,0 - - 9 5 - - S 1013,7 50 0 0,0
04.04.2020 19:00:00 9,9 2,9 - - 15 8 - - SSO 1013,5 50 0 0,0
04.04.2020 18:00:00 10,1 3,2 - - 16 9 - - SO 1013,7 50 0 0,0
04.04.2020 17:00:00 10,0 3,2 - - 24 13 - - SSO 1014,0 35 0 0,0
04.04.2020 16:00:00 10,3 3,7 - - 24 13 - - SO 1014,1 27 0 0,0
04.04.2020 15:00:00 10,5 3,7 - - 24 13 - - SSO 1014,3 50 0 0,0
04.04.2020 14:00:00 9,7 3,8 - - 26 14 - - SSO 1014,4 40 0 0,0
04.04.2020 13:00:00 10,0 2,4 - - 22 12 - - SO 1014,5 50 0 0,0
04.04.2020 12:00:00 9,9 3,3 - - 21 11 - - SSO 1014,5 30 0 0,0
04.04.2020 11:00:00 9,4 4,4 - - 16 9 - - SSO 1014,7 45 0 0,0
04.04.2020 10:00:00 8,7 3,4 7,0 7,0 11 6 - - OSO 1014,5 50 6 0,0
04.04.2020 09:00:00 7,7 3,7 - - 15 8 - - SO 1014,2 45 24 0,0
04.04.2020 08:00:00 6,0 3,1 - - 11 6 - - SO 1014,3 50 0 0,0
04.04.2020 07:00:00 4,7 2,3 - - 8 4 - - SSO 1014,0 50 0 0,0
04.04.2020 06:00:00 4,7 2,4 - - 9 5 - - SO 1013,7 45 0 0,0
04.04.2020 05:00:00 5,5 3,3 - - 13 7 - - SO 1013,5 35 0 0,0
04.04.2020 04:00:00 6,0 4,0 - - 11 6 - - SO 1013,7 45 0 0,0
04.04.2020 03:00:00 5,9 3,7 - - 9 5 - - SO 1013,7 45 0 0,0
04.04.2020 02:00:00 6,1 3,3 - - 11 6 - - SO 1013,7 50 0 0,0
04.04.2020 01:00:00 5,5 3,1 - - 15 8 - - SO 1013,7 50 - 0,0
04.04.2020 00:00:00 5,4 3,1 - - 13 7 - - OSO 1013,4 50 0 0,0
03.04.2020 23:00:00 6,0 3,9 - - 16 9 - - SO 1013,1 50 0 0,0
03.04.2020 22:00:00 6,3 3,9 - - 11 6 - - OSO 1013,1 50 0 0,0
03.04.2020 21:00:00 6,4 4,1 - - 9 5 - - SO 1013,0 50 0 0,0
03.04.2020 20:00:00 7,2 4,2 - - 13 7 - - OSO 1012,7 50 0 0,0
03.04.2020 19:00:00 7,4 4,4 - - 15 8 - - OSO 1012,8 45 6 0,0
03.04.2020 18:00:00 7,5 4,5 - - 18 10 - - OSO 1012,7 45 0 0,0
03.04.2020 17:00:00 7,7 3,9 - - 21 11 - - OSO 1012,6 29 0 0,0
03.04.2020 16:00:00 7,6 3,9 - - 16 9 - - OSO 1012,6 30 6 0,0
03.04.2020 15:00:00 8,5 2,0 - - 18 10 - - O 1012,8 50 0 0,0
03.04.2020 14:00:00 7,6 0,6 - - 21 11 - - O 1012,9 45 0 0,0
03.04.2020 13:00:00 7,2 0,6 - - 21 11 - - O 1013,0 35 0 0,0
03.04.2020 12:00:00 6,7 0,8 - - 22 12 - - OSO 1013,1 45 0 0,0
03.04.2020 11:00:00 6,3 1,4 - - 18 10 - - OSO 1013,0 29 0 0,0
03.04.2020 10:00:00 5,3 1,6 7,0 7,0 16 9 - - OSO 1012,7 35 0 0,0
03.04.2020 09:00:00 4,5 1,1 - - 18 10 - - OSO 1012,3 29 0 0,0
03.04.2020 08:00:00 3,7 0,9 - - 13 7 - - SO 1012,3 18 0 0,0
03.04.2020 07:00:00 2,3 -0,1 - - 13 7 - - SO 1012,4 30 0 0,0
03.04.2020 06:00:00 1,6 -0,7 - - 11 6 - - SO 1012,4 45 0 0,0
03.04.2020 05:00:00 2,3 -1,0 - - 13 7 - - SO 1012,1 45 0 0,0
03.04.2020 04:00:00 3,1 -0,8 - - 15 8 - - OSO 1012,4 27 0 0,0
03.04.2020 03:00:00 2,3 -1,0 - - 13 7 - - OSO 1012,6 30 0 0,0
03.04.2020 02:00:00 2,1 -1,3 - - 13 7 - - OSO 1012,8 28 0 0,0
03.04.2020 01:00:00 2,3 -1,9 - - 16 9 - - OSO 1012,6 29 - 0,0
03.04.2020 00:00:00 2,8 -3,1 - - 16 9 - - O 1012,6 35 0 0,0
02.04.2020 23:00:00 3,2 -3,2 - - 16 9 - - OSO 1012,4 35 0 0,0
02.04.2020 22:00:00 4,1 -3,0 - - 21 11 - - O 1011,8 40 0 0,0
02.04.2020 21:00:00 4,6 -3,1 - - 15 8 - - OSO 1011,5 40 0 0,0
02.04.2020 20:00:00 5,4 -3,0 - - 22 12 50 27 O 1011,0 45 24 0,0
02.04.2020 19:00:00 7,0 -3,5 - - 35 19 54 29 O 1010,3 45 54 0,0
02.04.2020 18:00:00 8,6 -3,1 - - 34 18 57 31 O 1009,7 45 54 0,0
02.04.2020 17:00:00 9,1 -1,7 - - 35 19 61 33 O 1009,1 40 48 0,0
02.04.2020 16:00:00 9,9 -0,2 - - 31 17 54 29 ONO 1009,0 45 48 0,0
02.04.2020 15:00:00 9,6 1,0 - - 34 18 59 32 O 1008,5 35 18 0,0
02.04.2020 14:00:00 9,2 0,0 - - 35 19 80 43 ONO 1007,9 20 24 0,0
02.04.2020 13:00:00 10,1 0,1 - - 37 20 63 34 O 1007,2 23 18 0,0
02.04.2020 12:00:00 9,1 1,9 - - 34 18 63 34 O 1007,0 24 30 0,0
02.04.2020 11:00:00 9,8 4,8 - - 37 20 63 34 O 1006,4 35 12 0,0
02.04.2020 10:00:00 9,0 3,7 7,2 6,9 37 20 70 38 O 1006,2 16 36 0,0
02.04.2020 09:00:00 9,0 4,1 - - 39 21 57 31 O 1006,4 40 18 0,0
02.04.2020 08:00:00 8,5 5,9 - - 29 16 54 29 OSO 1006,7 50 0 0,0
02.04.2020 07:00:00 8,3 6,0 - - 29 16 50 27 OSO 1007,5 30 0 0,0
02.04.2020 06:00:00 7,6 4,9 - - 29 16 61 33 OSO 1008,3 40 0 0,0
02.04.2020 05:00:00 6,8 3,4 - - 26 14 50 27 OSO 1009,3 45 0 0,0
02.04.2020 04:00:00 7,2 3,3 - - 29 16 57 31 O 1010,8 35 0 0,0
02.04.2020 03:00:00 7,3 2,4 - - 29 16 48 26 O 1011,9 50 0 0,0
02.04.2020 02:00:00 6,8 2,7 - - 21 11 46 25 OSO 1013,2 45 0 0,0
02.04.2020 01:00:00 7,3 3,6 - - 26 14 - - OSO 1014,1 50 - 0,0
02.04.2020 00:00:00 7,8 5,4 - - 24 13 - - OSO 1014,7 50 0 0,0
01.04.2020 23:00:00 8,0 5,9 - - 22 12 - - OSO 1015,1 27 0 0,0

tt = Temperatura
td = dewpoint
tt -20cm = Temperatura -20cm
tt -100cm = Temperatura -100cm
ff = velocità del vento
fx = gusts
dd = direzione del vento
ppp = reduced air pressure
vv = visibility
sd = ore di luce
rr = precipitazioni

Stazioni seguenti

WeatherPro
AMSI
MeteoEarth